Regional Weather Roundup
Issued by NWS Columbia, SC

Home | Current Version | Previous Version | Text Only | Print | Product List | Glossary On
Versions: 1 2 3 4 5 6 7 8 9 10 11 12 13 14 15 16 17 18 19 20 21 22 23 24 25 26 27 28 29 30 31 32 33 34 35 36 37 38 39 40 41 42 43 44 45 46 47 48 49 50
000
ASUS42 KCAE 202210
RWRCAE
REGIONAL WEATHER ROUNDUP
NATIONAL WEATHER SERVICE COLUMBIA SC
600 PM EDT WED AUG 20 2014

NOTE: "FAIR" INDICATES FEW OR NO CLOUDS BELOW 12,000 FEET WITH NO
SIGNIFICANT WEATHER AND/OR OBSTRUCTIONS TO VISIBILITY.

NOT ALL STATIONS ARE QUALITY CONTROLLED BY THE NATIONAL
WEATHER SERVICE. USE DATA WITH CAUTION...ESPECIALLY
DEWPOINT OBSERVATIONS.

SCZ001>056-GAZ040-063>065-077-202300-
...UPSTATE SOUTH CAROLINA...

CITY           SKY/WX    TMP DP  RH WIND       PRES   REMARKS
ANDERSON       MOSUNNY   90  70  51 SW6       29.99F HX  95
LIBERTY        TSTM      85  85 100 NE10      30.01R HX 109
SPARTANBURG    FAIR      88  72  58 CALM      29.99S
CLEMSON        PTSUNNY   88  71  57 VRB5      30.00S
GREENVILLE     PTSUNNY   87  69  54 SW8       30.01R
GREENWOOD      PTSUNNY   94  65  38 W5        29.98F HX  96
GREER          PTSUNNY   85  74  69 SE6       29.99R
ROCK HILL      MOSUNNY   89  69  51 CALM      29.99R
CHESTER        FAIR      91  64  40 CALM      29.99R
LAURENS        FAIR      90  55  31 NW3       29.99S


...CENTRAL SOUTH CAROLINA...

CITY           SKY/WX    TMP DP  RH WIND       PRES   REMARKS
COLUMBIA APT   MOSUNNY   95  66  38 NW7       29.95R HX  98
COLUMBIA OWENS SUNNY     96  65  35 VRB7      29.97R HX  98
DARLINGTON     MOSUNNY   82  73  74 E6        29.97S
FLORENCE       MOSUNNY   93  69  45 NW3       29.95F HX  98
MCENTIRE ANGB  MOSUNNY   94  68  42 SW7       29.96S HX  98
ORANGEBURG     SUNNY     93  68  43 SW5       29.96S HX  97
SUMTER SHAW    MOSUNNY   93  74  53 SW6       29.95S HX 102
NEWBERRY       FAIR      95  61  31 W7        29.99S HX  95
AIKEN          FAIR      90  72  55 SW6       30.01S HX  96
BARNWELL       FAIR      95  66  38 CALM      29.97F HX  98
MANNING        FAIR      93  73  52 S3        29.96S HX 102
CAMDEN         FAIR      91  68  46 CALM      29.98R HX  95
LANCASTER      FAIR      91  66  43 CALM      29.97S
WINNSBORO      FAIR      90  70  51 CALM      29.97S HX  95


...EASTERN AND COASTAL SOUTH CAROLINA...

CITY           SKY/WX    TMP DP  RH WIND       PRES   REMARKS
MYRTLE BEACH   PTSUNNY   90  75  62 S12       29.95F HX 100
N MYRTLE BCH   MOSUNNY   81  74  79 CALM      29.96F
CONWAY         FAIR      90  72  55 W3        29.95F HX  96
MARION         MOCLDY    91  70  49 NE6       29.96S HX  97
HARTSVILLE     MOCLDY    91  45  19 SW7       29.98R
FLORENCE       MOSUNNY   93  69  45 NW3       29.95F HX  98
DARLINGTON     MOSUNNY   82  73  74 E6        29.97S
CHARLESTON APT MOSUNNY   94  71  47 W6        29.96F HX 101
MOUNT PLEASANT FAIR      93  73  52 CALM      29.96S HX 102
WALTERBORO     PTCLDY    95  64  36 W6        29.97S HX  97
BEAUFORT       MOSUNNY   95  67  39 N6        29.97R HX  99


...EASTERN GEORGIA...

CITY           SKY/WX    TMP DP  RH WIND       PRES   REMARKS
AUGUSTA BUSH F PTSUNNY   86  68  54 S9        29.97R
AUGUSTA DANIEL LGT RAIN  88  70  55 CALM      29.99S
THOMSON        CLOUDY    80  78  94 SE7       30.03F
WASHINGTON     FAIR      86  73  66 W7        30.00S
CLAXTON        FAIR      97  72  44 NW5       29.97F HX 105
SYLVANIA       PTCLDY    95  73  48 W6        29.99S HX 105
STATESBORO     SUNNY     94  71  47 W5        29.98S HX 100
SAVANNAH       MOSUNNY   95  70  44 NW5       29.98R HX 101


...SOUTHERN NORTH CAROLINA...

CITY           SKY/WX    TMP DP  RH WIND       PRES   REMARKS
CHARLOTTE      MOSUNNY   88  70  55 SW3       29.99R
MONROE         MOSUNNY   91  67  44 W7        29.97R
WADESBORO      CLEAR     92  68  44 CALM      29.95F HX  96
ROCKINGHAM     PTCLDY    88  73  59 SE7       29.96S HX  95
RUTHERFORDTON  MOSUNNY   82  68  63 W5        30.02R
ASHEVILLE      CLOUDY    78  64  61 CALM      30.09R

$$


USA.gov is the U.S. government's official web portal to all federal, state and local government web resources and services.